Chariton, IA

6:01 PM CST on February 12, 2016 (GMT -0600)
Chariton Municipal

Weather History for KCNC - March, 2013

Change the Weather History Date:

Sunday, March 10, 2013

  Actual Average Record
Temperature  
Mean Temperature 39 °F -  
Max Temperature 46 °F 47 °F 75 °F (1955)
Min Temperature 30 °F 24 °F 0 °F (1965)
Degree Days  
Heating Degree Days 26    
Moisture  
Dew Point 34 °F    
Average Humidity 93    
Maximum Humidity 100    
Minimum Humidity 87    
Precipitation  
Precipitation 0.64 in - - ()
Sea Level Pressure  
Sea Level Pressure 29.68 in    
Wind  
Wind Speed 0 mph (North)    
Max Wind Speed 0 mph    
Max Gust Speed -    
Visibility 4 miles    
Events Fog , Rain , Snow    
Averages and records for this station are not official NWS values.
T = Trace of Precipitation, MM = Missing Value Source: NWS Daily Summary

Daily Weather History Graph

Daily Weather History Graph

Search for Another Location

Airport or City:

Trip Planner

Search our weather history database for the weather conditions in past years. The results will help you decide how hot, cold, wet, or windy it might be!

Date:

Astronomy

Mar. 10, 2013 Rise Set
Actual Time 7:32 AM CDT 7:14 PM CDT
Civil Twilight 7:05 AM CDT 7:42 PM CDT
Nautical Twilight 6:33 AM CDT 8:14 PM CDT
Astronomical Twilight 6:01 AM CDT 8:46 PM CDT
Moon 6:33 AM CDT (3/10) 6:23 PM CDT (3/10)
Length of Visible Light 12h 36m
Length of Day
11h 42m
Waning Crescent, 2% of the Moon is Illuminated
Mar 10
Waning Crescent
Mar 11
New
Mar 19
First Quarter
Mar 27
Full
Apr 2
Last Quarter

Hourly Weather History & Observations

Time (CDT) Temp. Dew Point Humidity Pressure Visibility Wind Dir Wind Speed Gust Speed Precip Events Conditions
12:15 AM 44.6 °F 42.8 °F 93% 29.66 in 0.2 mi Calm Calm - 0.01 in   Drizzle
12:35 AM 44.6 °F 42.8 °F 93% 29.66 in 0.2 mi North - - 0.06 in Rain Heavy Rain
12:55 AM 44.6 °F 42.8 °F 93% 29.67 in 1.0 mi North - - 0.17 in Rain Rain
1:15 AM 46.4 °F 44.6 °F 93% 29.66 in 1.8 mi North - - N/A   Light Drizzle
1:35 AM 46.4 °F 44.6 °F 93% 29.65 in 0.2 mi North - - N/A Fog Fog
1:55 AM 42.8 °F 41.0 °F 93% 29.64 in 0.2 mi North - - N/A Fog Fog
3:15 AM 44.6 °F 42.8 °F 93% 29.62 in 0.2 mi North - - N/A Fog Fog
3:35 AM 42.8 °F 41.0 °F 93% 29.62 in 0.2 mi North - - N/A Fog Fog
3:55 AM 44.6 °F 42.8 °F 93% 29.62 in 0.2 mi North - - N/A Fog Fog
4:15 AM 42.8 °F 41.0 °F 93% 29.62 in 0.2 mi North - - N/A Fog Fog
4:35 AM 42.8 °F 41.0 °F 93% 29.63 in 0.2 mi North - - N/A Rain Light Rain
4:55 AM 42.8 °F 39.2 °F 87% 29.65 in 0.2 mi North - - 0.01 in Rain Rain
5:15 AM 41.0 °F 39.2 °F 93% 29.64 in 0.2 mi North - - 0.02 in Rain Rain
5:35 AM 39.2 °F 37.4 °F 93% 29.64 in 0.2 mi North - - 0.02 in Rain Light Rain
5:55 AM 39.2 °F 37.4 °F 93% 29.63 in 0.2 mi North - - 0.08 in Rain Rain
6:15 AM 39.2 °F 37.4 °F 93% 29.68 in 3.0 mi North - - 0.02 in Rain Rain
7:15 AM 37.4 °F 35.6 °F 93% 29.67 in 5.0 mi North - - 0.02 in Rain Rain
7:35 AM 37.4 °F 35.6 °F 93% 29.68 in 5.0 mi North - - 0.02 in   Overcast
7:55 AM 35.6 °F 35.6 °F 100% 29.68 in 3.0 mi North - - 0.02 in   Overcast
8:15 AM 35.6 °F 33.8 °F 93% 29.68 in 1.8 mi North - - N/A   Overcast
8:35 AM 35.6 °F 33.8 °F 93% 29.70 in 1.0 mi North - - N/A   Drizzle
8:55 AM 35.6 °F 33.8 °F 93% 29.72 in 1.0 mi North - - N/A   Drizzle
9:15 AM 35.6 °F 33.8 °F 93% 29.73 in 1.2 mi North - - 0.01 in   Drizzle
9:35 AM 35.6 °F 33.8 °F 93% 29.72 in 1.0 mi North - - 0.08 in Rain Light Rain
9:55 AM 35.6 °F 33.8 °F 93% 29.72 in 2.0 mi North - - 0.09 in   Light Drizzle
10:15 AM 35.6 °F 33.8 °F 93% 29.70 in 3.0 mi North - - N/A   Overcast
10:35 AM 35.6 °F 33.8 °F 93% 29.73 in 3.0 mi North - - N/A   Light Drizzle
10:55 AM 35.6 °F 33.8 °F 93% 29.72 in 3.0 mi North - - N/A Rain Light Rain
11:15 AM 35.6 °F 33.8 °F 93% 29.72 in 4.0 mi North - - 0.01 in Rain Rain
11:35 AM 35.6 °F 33.8 °F 93% 29.71 in 5.0 mi North - - 0.01 in   Light Drizzle
11:55 AM 35.6 °F 33.8 °F 93% 29.71 in 5.0 mi North - - 0.01 in   Light Drizzle
12:15 PM 35.6 °F 33.8 °F 93% 29.71 in 5.0 mi North - - N/A   Overcast
12:35 PM 35.6 °F 33.8 °F 93% 29.69 in 4.0 mi North - - N/A   Overcast
12:55 PM 35.6 °F 33.8 °F 93% 29.70 in 4.0 mi North - - N/A   Light Drizzle
1:15 PM 35.6 °F 33.8 °F 93% 29.70 in 5.0 mi North - - N/A   Light Drizzle
1:35 PM 35.6 °F 33.8 °F 93% 29.66 in 4.0 mi North - - N/A Rain Rain
1:55 PM 35.6 °F 33.8 °F 93% 29.66 in 4.0 mi North - - 0.02 in Rain Rain
2:15 PM 35.6 °F 33.8 °F 93% 29.66 in 1.5 mi North - - 0.03 in Rain Light Rain
2:35 PM 35.6 °F 33.8 °F 93% 29.65 in 3.0 mi North - - 0.07 in   Overcast
2:55 PM 35.6 °F 33.8 °F 93% 29.65 in 5.0 mi North - - 0.12 in Rain Light Rain
3:15 PM 35.6 °F 33.8 °F 93% 29.65 in 4.0 mi North - - 0.02 in Rain Light Rain
3:35 PM 35.6 °F 33.8 °F 93% 29.65 in 4.0 mi North - - 0.05 in Rain Light Rain
3:55 PM 35.6 °F 33.8 °F 93% 29.65 in 5.0 mi North - - 0.06 in Rain Light Rain
4:15 PM 35.6 °F 33.8 °F 93% 29.66 in 7.0 mi North - - 0.01 in Rain Light Rain
4:35 PM 35.6 °F 33.8 °F 93% 29.66 in 10.0 mi North - - 0.02 in Rain Rain
4:55 PM 35.6 °F 33.8 °F 93% 29.66 in 10.0 mi North - - 0.02 in   Drizzle
5:15 PM 35.6 °F 33.8 °F 93% 29.66 in 10.0 mi North - - 0.01 in Rain Rain
5:35 PM 35.6 °F 33.8 °F 93% 29.66 in 10.0 mi North - - 0.01 in Rain Rain
5:55 PM 33.8 °F 32.0 °F 93% 29.66 in 10.0 mi North - - 0.01 in   Light Drizzle
6:15 PM 33.8 °F 32.0 °F 93% 29.67 in 10.0 mi North - - N/A   Light Drizzle
6:35 PM 33.8 °F 32.0 °F 93% 29.68 in 10.0 mi North - - N/A Rain Light Rain
6:55 PM 33.8 °F 30.2 °F 87% 29.68 in 5.0 mi North - - N/A Rain Light Rain
7:15 PM 33.8 °F 30.2 °F 87% 29.68 in 7.0 mi North - - N/A   Drizzle
7:35 PM 33.8 °F 30.2 °F 87% 29.68 in 4.0 mi North - - N/A Snow Light Snow
7:55 PM 33.8 °F 30.2 °F 87% 29.69 in 5.0 mi North - - 0.01 in Snow Light Snow
8:15 PM 33.8 °F 30.2 °F 87% 29.70 in 7.0 mi North - - N/A   Overcast
8:35 PM 33.8 °F 30.2 °F 87% 29.70 in 7.0 mi North - - N/A   Overcast
8:55 PM 32.0 °F 30.2 °F 93% 29.70 in 5.0 mi North - - N/A   Overcast
9:15 PM 32.0 °F 30.2 °F 93% 29.71 in 5.0 mi North - - N/A   Overcast
9:35 PM 32.0 °F 30.2 °F 93% 29.71 in 4.0 mi North - - N/A   Overcast
9:55 PM 32.0 °F 30.2 °F 93% 29.70 in 4.0 mi North - - N/A   Overcast
10:15 PM 32.0 °F 30.2 °F 93% 29.71 in 3.0 mi North - - N/A   Overcast
10:35 PM 32.0 °F 30.2 °F 93% 29.72 in 3.0 mi North - - N/A   Overcast
10:55 PM 32.0 °F 30.2 °F 93% 29.72 in 3.0 mi North - - N/A   Overcast
11:15 PM 32.0 °F 30.2 °F 93% 29.73 in 3.0 mi North - - N/A   Overcast
11:35 PM 32.0 °F 30.2 °F 93% 29.73 in 4.0 mi North - - N/A   Overcast
11:55 PM 32.0 °F 30.2 °F 93% 29.73 in 2.0 mi North - - N/A Snow Light Snow
12:15 AM 32.0 °F 30.2 °F 93% 29.73 in 0.8 mi North - - N/A Snow Light Snow
12:35 AM 32.0 °F 30.2 °F 93% 29.73 in 1.2 mi North - - N/A Snow Light Snow
12:55 AM 30.2 °F 30.2 °F 100% 29.73 in 2.5 mi North - - N/A Snow Light Snow